EW1268 Weather Reports


Display with metric or nautical units.
time (UTC)temp
F
wind
direction
speed
MPH
gust
MPH
rain 1hr
in
rain 24hr
in
rain mn
in
humidity
%
barometer
mb
20221003042550 63 0 0.0 1.0 0.00 0.00 0.00 65 1019.4
20221003042047 63 0 0.0 2.0 0.00 0.00 0.00 65 1019.4
20221003041556 63 0 0.0 2.0 0.00 0.00 0.00 64 1019.5
20221003041049 63 0 0.0 1.0 0.00 0.00 0.00 63 1019.4
20221003040549 64 0 0.0 1.0 0.00 0.00 0.00 63 1019.5
20221003040126 64 320 0.0 1.0 0.00 0.00 0.00 63 1019.3
20221003035549 64 0 0.0 0.0 0.00 0.00 0.00 62 1019.4
20221003035051 64 0 0.0 0.0 0.00 0.00 0.00 62 1019.4
20221003034613 64 0 0.0 0.0 0.00 0.00 0.00 62 1019.3
20221003034052 64 0 0.0 0.0 0.00 0.00 0.00 61 1019.3
20221003033548 64 0 0.0 2.0 0.00 0.00 0.00 61 1019.4
20221003033101 64 0 1.0 2.0 0.00 0.00 0.00 61 1019.2
20221003032548 65 0 0.0 1.0 0.00 0.00 0.00 60 1019.3
20221003032050 65 0 0.0 0.0 0.00 0.00 0.00 59 1019.2
20221003031558 65 0 0.0 0.0 0.00 0.00 0.00 59 1019.2
20221003031049 65 0 0.0 0.0 0.00 0.00 0.00 65 1019.1
20221003030551 65 0 0.0 0.0 0.00 0.00 0.00 55 1019.2
20221003030100 66 0 0.0 0.0 0.00 0.00 0.00 56 1019.1
20221003025549 66 0 0.0 0.0 0.00 0.00 0.00 56 1019.1
20221003025050 66 0 0.0 0.0 0.00 0.00 0.00 55 1018.9
20221003024551 66 0 0.0 0.0 0.00 0.00 0.00 55 1018.9
20221003024049 67 0 0.0 0.0 0.00 0.00 0.00 55 1018.9
20221003023549 67 0 0.0 0.0 0.00 0.00 0.00 55 1018.9
20221003023058 67 0 0.0 0.0 0.00 0.00 0.00 54 1018.8
20221003022549 67 0 0.0 0.0 0.00 0.00 0.00 54 1018.9
20221003022049 68 0 0.0 0.0 0.00 0.00 0.00 60 1018.8
20221003021555 68 0 0.0 0.0 0.00 0.00 0.00 49 1018.7
20221003021049 68 0 0.0 0.0 0.00 0.00 0.00 50 1018.8
20221003020549 69 0 0.0 0.0 0.00 0.00 0.00 52 1018.8
20221003020101 69 0 0.0 0.0 0.00 0.00 0.00 50 1018.7
20221003015549 69 0 0.0 0.0 0.00 0.00 0.00 48 1018.8
20221003015052 69 0 0.0 0.0 0.00 0.00 0.00 49 1018.7
20221003014555 69 0 0.0 0.0 0.00 0.00 0.00 49 1018.6
20221003014049 69 0 0.0 0.0 0.00 0.00 0.00 48 1018.5
20221003013550 70 0 0.0 0.0 0.00 0.00 0.00 48 1018.4
20221003013053 70 0 0.0 0.0 0.00 0.00 0.00 49 1018.3
20221003012552 70 0 0.0 0.0 0.00 0.00 0.00 47 1018.1
20221003012046 70 0 0.0 0.0 0.00 0.00 0.00 48 1018.2
20221003011608 71 0 0.0 1.0 0.00 0.00 0.00 48 1018.2
20221003011049 71 0 0.0 1.0 0.00 0.00 0.00 48 1018.1
20221003010549 72 0 0.0 0.0 0.00 0.00 0.00 48 1018.1
20221003010102 72 0 0.0 1.0 0.00 0.00 0.00 44 1018.1
20221003005548 72 0 0.0 1.0 0.00 0.00 0.00 43 1018.2
20221003005049 73 0 0.0 0.0 0.00 0.00 0.00 41 1018.0
20221003004557 74 0 0.0 1.0 0.00 0.00 0.00 39 1018.0
20221003004047 75 0 0.0 2.0 0.00 0.00 0.00 38 1018.0
20221003003547 76 0 0.0 2.0 0.00 0.00 0.00 38 1018.1
20221003003105 76 0 0.0 0.0 0.00 0.00 0.00 39 1018.0
20221003002547 77 0 0.0 0.0 0.00 0.00 0.00 38 1018.0
20221003002052 77 0 0.0 0.0 0.00 0.00 0.00 39 1018.0
20221003001556 78 0 0.0 0.0 0.00 0.00 0.00 37 1018.0
20221003001049 78 0 0.0 0.0 0.00 0.00 0.00 39 1017.9
20221003000548 79 0 0.0 0.0 0.00 0.00 0.00 36 1017.9
20221003000058 80 0 0.0 0.0 0.00 0.00 0.00 36 1017.9
20221002235548 80 0 0.0 0.0 0.00 0.00 0.00 35 1018.0
20221002235049 81 0 0.0 0.0 0.00 0.00 0.00 35 1017.8
20221002234559 81 0 0.0 1.0 0.00 0.00 0.00 30 1017.7
20221002234049 82 0 0.0 1.0 0.00 0.00 0.00 31 1017.6
20221002233547 82 0 0.0 1.0 0.00 0.00 0.00 30 1017.8
20221002233114 82 0 0.0 3.0 0.00 0.00 0.00 28 1017.6
20221002232548 83 0 0.0 3.0 0.00 0.00 0.00 27 1017.7
20221002232048 83 320 1.0 3.0 0.00 0.00 0.00 25 1017.8
20221002231557 84 325 0.0 2.0 0.00 0.00 0.00 27 1017.7
20221002231046 84 325 0.0 3.0 0.00 0.00 0.00 25 1017.6
20221002230546 84 325 1.0 3.0 0.00 0.00 0.00 24 1017.6
20221002230134 85 326 0.0 3.0 0.00 0.00 0.00 23 1017.6
20221002225550 85 321 1.0 3.0 0.00 0.00 0.00 25 1017.7
20221002225049 85 0 0.0 3.0 0.00 0.00 0.00 27 1017.6
20221002224557 84 0 0.0 2.0 0.00 0.00 0.00 27 1017.6
20221002224047 83 0 0.0 6.0 0.00 0.00 0.00 26 1017.5
20221002223546 84 294 1.0 6.0 0.00 0.00 0.00 26 1017.5
20221002223054 85 0 1.0 4.0 0.00 0.00 0.00 32 1017.4
20221002222548 86 275 1.0 7.0 0.00 0.00 0.00 31 1017.4
20221002222049 87 350 0.0 7.0 0.00 0.00 0.00 24 1017.4
20221002221555 88 269 0.0 4.0 0.00 0.00 0.00 24 1017.5
20221002221049 88 360 1.0 3.0 0.00 0.00 0.00 24 1017.5
20221002220548 87 290 0.0 3.0 0.00 0.00 0.00 29 1017.6
20221002220059 87 0 0.0 3.0 0.00 0.00 0.00 28 1017.5
20221002215548 88 5 0.0 4.0 0.00 0.00 0.00 24 1017.4
20221002215049 88 348 1.0 4.0 0.00 0.00 0.00 26 1017.4
20221002214601 87 318 1.0 4.0 0.00 0.00 0.00 39 1017.4
20221002214049 86 288 1.0 4.0 0.00 0.00 0.00 25 1017.5
20221002213550 86 262 1.0 4.0 0.00 0.00 0.00 24 1017.5
20221002213106 86 334 0.0 4.0 0.00 0.00 0.00 29 1017.6
20221002212549 85 333 1.0 4.0 0.00 0.00 0.00 26 1017.6
20221002212048 85 319 0.0 3.0 0.00 0.00 0.00 28 1017.6
20221002211556 85 320 0.0 4.0 0.00 0.00 0.00 26 1017.5
20221002211048 85 271 1.0 5.0 0.00 0.00 0.00 27 1017.5
20221002210549 85 281 2.0 8.0 0.00 0.00 0.00 25 1017.5
20221002210122 86 306 1.0 8.0 0.00 0.00 0.00 25 1017.5
20221002205548 86 292 2.0 4.0 0.00 0.00 0.00 34 1017.5
20221002205049 87 98 1.0 4.0 0.00 0.00 0.00 32 1017.4
20221002204557 87 0 0.0 4.0 0.00 0.00 0.00 24 1017.5
20221002204049 88 335 1.0 4.0 0.00 0.00 0.00 25 1017.6
20221002203548 88 311 1.0 6.0 0.00 0.00 0.00 25 1017.6
20221002203055 88 329 2.0 6.0 0.00 0.00 0.00 28 1017.7
20221002202548 87 327 1.0 3.0 0.00 0.00 0.00 22 1017.7
20221002202050 87 46 1.0 3.0 0.00 0.00 0.00 28 1017.7
20221002201555 87 0 1.0 6.0 0.00 0.00 0.00 28 1017.5
20221002201049 87 344 1.0 6.0 0.00 0.00 0.00 34 1017.7
20221002200548 87 256 1.0 6.0 0.00 0.00 0.00 34 1017.7
20221002200110 87 5 2.0 6.0 0.00 0.00 0.00 27 1017.7
20221002195549 87 343 2.0 6.0 0.00 0.00 0.00 33 1017.7
20221002195048 87 301 1.0 5.0 0.00 0.00 0.00 29 1017.8
20221002194556 87 273 2.0 6.0 0.00 0.00 0.00 31 1017.9
20221002194049 87 306 1.0 6.0 0.00 0.00 0.00 26 1017.8
20221002193549 86 76 1.0 5.0 0.00 0.00 0.00 32 1018.1
20221002193057 86 32 2.0 5.0 0.00 0.00 0.00 32 1018.1
20221002192548 86 228 1.0 4.0 0.00 0.00 0.00 33 1018.3
20221002192050 86 317 1.0 6.0 0.00 0.00 0.00 43 1018.4
20221002191600 85 328 1.0 6.0 0.00 0.00 0.00 33 1018.5
20221002191049 85 93 1.0 7.0 0.00 0.00 0.00 32 1018.5
20221002190546 85 82 2.0 7.0 0.00 0.00 0.00 32 1018.5
20221002190100 84 349 1.0 6.0 0.00 0.00 0.00 34 1018.6
20221002185549 84 311 1.0 4.0 0.00 0.00 0.00 34 1018.7
20221002185052 83 51 1.0 5.0 0.00 0.00 0.00 31 1018.8
20221002184608 83 284 1.0 5.0 0.00 0.00 0.00 31 1019.1
20221002184050 84 271 1.0 4.0 0.00 0.00 0.00 30 1019.2
20221002183550 84 63 1.0 4.0 0.00 0.00 0.00 45 1019.3
20221002183100 83 84 1.0 6.0 0.00 0.00 0.00 32 1019.2
20221002182549 83 77 2.0 7.0 0.00 0.00 0.00 31 1019.1
20221002182048 83 292 1.0 7.0 0.00 0.00 0.00 34 1019.2
20221002181605 83 293 2.0 4.0 0.00 0.00 0.00 33 1019.3
20221002181048 83 67 1.0 5.0 0.00 0.00 0.00 33 1019.3
20221002180549 83 306 1.0 7.0 0.00 0.00 0.00 32 1019.4
20221002180103 84 320 2.0 7.0 0.00 0.00 0.00 31 1019.5
20221002175548 84 326 1.0 5.0 0.00 0.00 0.00 34 1019.5
20221002175049 84 360 2.0 5.0 0.00 0.00 0.00 42 1019.5
20221002174603 85 307 1.0 4.0 0.00 0.00 0.00 43 1019.6
20221002174052 84 78 0.0 3.0 0.00 0.00 0.00 34 1019.5
20221002173549 84 59 0.0 3.0 0.00 0.00 0.00 30 1019.6
20221002173100 84 101 0.0 6.0 0.00 0.00 0.00 36 1019.8
20221002172549 83 64 2.0 6.0 0.00 0.00 0.00 34 1019.7
20221002172047 83 336 1.0 6.0 0.00 0.00 0.00 28 1019.9
20221002171559 83 127 1.0 4.0 0.00 0.00 0.00 31 1019.9
20221002171049 84 123 1.0 4.0 0.00 0.00 0.00 30 1019.9
20221002170549 83 127 1.0 3.0 0.00 0.00 0.00 33 1019.8
20221002170059 83 0 0.0 3.0 0.00 0.00 0.00 44 1020.0
20221002165550 83 205 0.0 3.0 0.00 0.00 0.00 44 1020.1
20221002165048 82 211 1.0 2.0 0.00 0.00 0.00 36 1020.1
20221002164559 82 206 0.0 3.0 0.00 0.00 0.00 33 1020.3
20221002164051 82 205 1.0 3.0 0.00 0.00 0.00 35 1020.3
20221002163550 83 223 1.0 3.0 0.00 0.00 0.00 35 1020.3
20221002163058 83 126 1.0 3.0 0.00 0.00 0.00 36 1020.2
20221002162548 82 0 0.0 3.0 0.00 0.00 0.00 37 1020.4
20221002162048 81 47 1.0 4.0 0.00 0.00 0.00 38 1020.3
20221002161602 82 49 1.0 4.0 0.00 0.00 0.00 45 1020.4
20221002161049 81 128 0.0 3.0 0.00 0.00 0.00 47 1020.5
20221002160548 82 118 1.0 3.0 0.00 0.00 0.00 37 1020.5
20221002160059 81 119 0.0 3.0 0.00 0.00 0.00 39 1020.6
20221002155549 81 114 0.0 4.0 0.00 0.00 0.00 39 1020.5
20221002155048 80 109 1.0 5.0 0.00 0.00 0.00 40 1020.4
20221002154556 80 182 1.0 5.0 0.00 0.00 0.00 40 1020.5
20221002154046 80 103 1.0 4.0 0.00 0.00 0.00 41 1020.5
20221002153548 79 139 1.0 3.0 0.00 0.00 0.00 40 1020.5
20221002153055 78 135 1.0 3.0 0.00 0.00 0.00 52 1020.4
20221002152549 78 0 0.0 4.0 0.00 0.00 0.00 44 1020.4
20221002152046 77 135 1.0 4.0 0.00 0.00 0.00 44 1020.5
20221002151607 76 131 1.0 4.0 0.00 0.00 0.00 47 1020.3
20221002151046 75 0 0.0 3.0 0.00 0.00 0.00 49 1020.3
20221002150547 74 130 0.0 2.0 0.00 0.00 0.00 49 1020.2
20221002150055 73 0 0.0 2.0 0.00 0.00 0.00 53 1020.3
20221002145549 72 130 0.0 2.0 0.00 0.00 0.00 54 1020.3
20221002145049 71 130 0.0 2.0 0.00 0.00 0.00 57 1020.3
20221002144630 70 130 0.0 2.0 0.00 0.00 0.00 58 1020.3
20221002144048 69 130 0.0 2.0 0.00 0.00 0.00 58 1020.2
20221002143059 68 0 0.0 2.0 0.00 0.00 0.00 62 1020.0
20221002142547 66 0 0.0 3.0 0.00 0.00 0.00 65 1020.1
20221002142048 65 129 1.0 3.0 0.00 0.00 0.00 66 1020.0
20221002141558 64 129 0.0 2.0 0.00 0.00 0.00 67 1020.0
20221002141047 63 0 0.0 2.0 0.00 0.00 0.00 68 1020.0
20221002140552 63 129 0.0 2.0 0.00 0.00 0.00 69 1020.1
20221002140108 62 129 0.0 2.0 0.00 0.00 0.00 70 1019.9
20221002135548 61 0 0.0 0.0 0.00 0.00 0.00 71 1019.9
20221002135048 61 0 0.0 0.0 0.00 0.00 0.00 72 1019.7
20221002134554 60 0 0.0 1.0 0.00 0.00 0.00 73 1019.8
20221002134048 59 0 0.0 2.0 0.00 0.00 0.00 74 1019.8
20221002133549 59 129 0.0 2.0 0.00 0.00 0.00 74 1019.6
20221002133054 58 0 0.0 1.0 0.00 0.00 0.00 75 1019.6
20221002132547 58 0 0.0 2.0 0.00 0.00 0.00 76 1019.7
20221002132048 57 0 0.0 2.0 0.00 0.00 0.00 76 1019.6
20221002131555 57 0 0.0 0.0 0.00 0.00 0.00 77 1019.6
20221002131047 56 0 0.0 0.0 0.00 0.00 0.00 77 1019.4
20221002130553 56 0 0.0 1.0 0.00 0.00 0.00 77 1019.5
20221002130057 56 0 0.0 1.0 0.00 0.00 0.00 78 1019.4
20221002125548 56 0 0.0 0.0 0.00 0.00 0.00 78 1019.3
20221002125047 56 0 0.0 1.0 0.00 0.00 0.00 78 1019.4
20221002124048 55 0 0.0 0.0 0.00 0.00 0.00 79 1019.0
20221002123552 55 0 0.0 0.0 0.00 0.00 0.00 79 1019.1
20221002123102 55 0 0.0 1.0 0.00 0.00 0.00 79 1019.1
20221002122549 55 0 0.0 1.0 0.00 0.00 0.00 80 1018.9
20221002122048 55 129 0.0 1.0 0.00 0.00 0.00 81 1019.1
20221002121559 55 0 0.0 1.0 0.00 0.00 0.00 81 1018.9
20221002121048 54 0 0.0 1.0 0.00 0.00 0.00 82 1018.9
20221002120549 55 0 0.0 1.0 0.00 0.00 0.00 82 1018.8
20221002120057 55 0 0.0 0.0 0.00 0.00 0.00 82 1018.6
20221002115545 55 0 0.0 0.0 0.00 0.00 0.00 82 1018.6
20221002115045 55 0 0.0 0.0 0.00 0.00 0.00 82 1018.5
20221002114603 55 0 0.0 0.0 0.00 0.00 0.00 82 1018.5
20221002114047 55 0 0.0 0.0 0.00 0.00 0.00 82 1018.6
20221002113548 55 0 0.0 0.0 0.00 0.00 0.00 82 1018.6
20221002113054 55 0 0.0 0.0 0.00 0.00 0.00 82 1018.5
20221002112549 55 0 0.0 0.0 0.00 0.00 0.00 82 1018.5
20221002112047 55 0 0.0 0.0 0.00 0.00 0.00 82 1018.3
20221002111555 55 0 0.0 0.0 0.00 0.00 0.00 82 1018.3
20221002111048 55 0 0.0 0.0 0.00 0.00 0.00 82 1018.2
20221002110548 55 0 0.0 0.0 0.00 0.00 0.00 82 1018.1
20221002110100 55 0 0.0 0.0 0.00 0.00 0.00 82 1018.1
20221002105547 56 0 0.0 0.0 0.00 0.00 0.00 82 1018.2
20221002105047 56 0 0.0 0.0 0.00 0.00 0.00 82 1018.1
20221002104640 56 0 0.0 0.0 0.00 0.00 0.00 82 1018.0
20221002104047 56 0 0.0 0.0 0.00 0.00 0.00 82 1018.0
20221002103547 56 0 0.0 0.0 0.00 0.00 0.00 82 1017.9
20221002103058 56 0 0.0 0.0 0.00 0.00 0.00 82 1017.8
20221002102548 56 0 0.0 1.0 0.00 0.00 0.00 82 1017.8
20221002102047 56 0 0.0 1.0 0.00 0.00 0.00 81 1017.7
20221002101557 56 0 0.0 1.0 0.00 0.00 0.00 81 1017.6
20221002101047 56 0 0.0 1.0 0.00 0.00 0.00 81 1017.8
20221002100547 56 0 0.0 1.0 0.00 0.00 0.00 81 1017.7
20221002095548 56 0 0.0 1.0 0.00 0.00 0.00 81 1017.6
20221002095049 56 0 0.0 0.0 0.00 0.00 0.00 81 1017.7
20221002064556 60 0 0.0 1.0 0.00 0.00 0.00 75 1017.4
20221002064050 60 0 0.0 1.0 0.00 0.00 0.00 75 1017.3
20221002063555 60 0 0.0 0.0 0.00 0.00 0.00 75 1017.3
20221002063058 60 0 0.0 0.0 0.00 0.00 0.00 75 1017.2
20221002062550 60 0 0.0 0.0 0.00 0.00 0.00 74 1017.4
20221002062050 60 0 0.0 1.0 0.00 0.00 0.00 74 1017.4
20221002061600 60 0 0.0 1.0 0.00 0.00 0.00 73 1017.3
20221002061051 61 0 0.0 1.0 0.00 0.00 0.00 73 1017.4
20221002060550 61 0 0.0 1.0 0.00 0.00 0.00 73 1017.4
20221002060057 61 0 0.0 1.0 0.00 0.00 0.00 73 1017.5
20221002055549 61 129 0.0 1.0 0.00 0.00 0.00 73 1017.5
20221002055051 61 0 0.0 1.0 0.00 0.00 0.00 72 1017.3
20221002054600 62 0 0.0 0.0 0.00 0.00 0.00 72 1017.3
20221002054049 62 0 0.0 0.0 0.00 0.00 0.00 71 1017.3
20221002053550 62 0 0.0 0.0 0.00 0.00 0.00 70 1017.3
20221002053054 62 0 0.0 0.0 0.00 0.00 0.00 70 1017.3
20221002052551 62 0 0.0 0.0 0.00 0.00 0.00 70 1017.3
20221002052050 62 0 0.0 0.0 0.00 0.00 0.00 70 1017.4
20221002051556 62 0 0.0 2.0 0.00 0.00 0.00 69 1017.4
20221002051047 62 0 0.0 2.0 0.00 0.00 0.00 69 1017.3
20221002050547 62 0 0.0 1.0 0.00 0.00 0.00 69 1017.1
20221002050107 63 0 0.0 1.0 0.00 0.00 0.00 69 1017.1
20221002045552 63 0 0.0 2.0 0.00 0.00 0.00 69 1017.1
20221002045047 63 129 0.0 2.0 0.00 0.00 0.00 68 1017.2
20221002044556 63 0 0.0 2.0 0.00 0.00 0.00 67 1017.1
20221002044052 63 129 0.0 2.0 0.00 0.00 0.00 66 1017.0
20221002043549 63 0 0.0 2.0 0.00 0.00 0.00 66 1016.8
20221002043058 64 0 0.0 2.0 0.00 0.00 0.00 65 1016.9